GAF123 EDDS-EDFZ

Flight info

Callsign GAF123
Flight time 0h 25m
Altitude 16000
Route VESID VFR
Aircraft A400/H-SDE2E3FGHIJ4J5M1RWXY/LB1D1

Departure

Time 2026-04-25 07:23
Airport Stuttgart Airport (EDDS)

Arrival

Time 2026-04-25 07:48
Airport Mainz-Finthen Airfield (EDFZ)
Time Latitude Longitude Altitude Speed Heading
2026-04-25 07:03 48.68314 9.20217 1295 ft 0 kts 164°
2026-04-25 07:18 48.68312 9.20217 1295 ft 0 kts 169°
2026-04-25 07:18 48.68311 9.20218 1295 ft 1 kts 170°
2026-04-25 07:18 48.68306 9.20210 1295 ft 1 kts 222°
2026-04-25 07:19 48.68312 9.20194 1295 ft 2 kts 316°
2026-04-25 07:19 48.68330 9.20183 1295 ft 5 kts 333°
2026-04-25 07:19 48.68377 9.20140 1295 ft 10 kts 327°
2026-04-25 07:19 48.68447 9.20086 1295 ft 12 kts 342°
2026-04-25 07:20 48.68473 9.20073 1295 ft 0 kts 342°
2026-04-25 07:22 48.68477 9.20071 1295 ft 3 kts 342°
2026-04-25 07:22 48.68523 9.20059 1295 ft 12 kts
2026-04-25 07:22 48.68623 9.20188 1295 ft 39 kts 52°
2026-04-25 07:22 48.68674 9.20479 1295 ft 64 kts 76°
2026-04-25 07:23 48.68903 9.21747 1493 ft 161 kts 74°
2026-04-25 07:23 48.69201 9.23467 2471 ft 176 kts 75°
2026-04-25 07:23 48.69549 9.25316 3502 ft 197 kts 74°
2026-04-25 07:23 48.69968 9.27492 4099 ft 232 kts 73°
2026-04-25 07:24 48.70453 9.29995 4696 ft 260 kts 73°
2026-04-25 07:24 48.70974 9.32684 5318 ft 271 kts 72°
2026-04-25 07:24 48.71505 9.35436 6060 ft 273 kts 72°
2026-04-25 07:24 48.72038 9.38209 7025 ft 277 kts 72°
2026-04-25 07:25 48.72805 9.40899 8029 ft 279 kts 56°
2026-04-25 07:25 48.74181 9.42953 9033 ft 280 kts 29°
2026-04-25 07:25 48.76015 9.43862 10069 ft 281 kts
2026-04-25 07:25 48.77961 9.43623 11029 ft 283 kts 344°
2026-04-25 07:26 48.79808 9.42589 12009 ft 285 kts 333°
2026-04-25 07:26 48.81604 9.41271 13044 ft 289 kts 331°
2026-04-25 07:26 48.83414 9.39894 14076 ft 292 kts 330°
2026-04-25 07:26 48.85249 9.38507 15000 ft 298 kts 330°
2026-04-25 07:27 48.87127 9.37100 15693 ft 304 kts 330°
2026-04-25 07:27 48.89002 9.35577 16052 ft 307 kts 324°
2026-04-25 07:27 48.90584 9.33443 16129 ft 304 kts 306°
2026-04-25 07:27 48.91578 9.30639 16126 ft 301 kts 287°
2026-04-25 07:28 48.92047 9.27587 16127 ft 301 kts 279°
2026-04-25 07:28 48.92384 9.24441 16137 ft 301 kts 278°
2026-04-25 07:28 48.92702 9.21290 16127 ft 302 kts 278°
2026-04-25 07:28 48.93024 9.18134 16126 ft 302 kts 278°
2026-04-25 07:29 48.93352 9.14973 16127 ft 302 kts 278°
2026-04-25 07:29 48.93683 9.11821 16129 ft 302 kts 278°
2026-04-25 07:29 48.94016 9.08663 16127 ft 302 kts 278°
2026-04-25 07:29 48.94351 9.05501 16131 ft 302 kts 278°
2026-04-25 07:30 48.94680 9.02385 16128 ft 302 kts 278°
2026-04-25 07:30 48.95014 8.99227 16180 ft 303 kts 278°
2026-04-25 07:30 48.95395 8.96078 15949 ft 303 kts 283°
2026-04-25 07:30 48.96227 8.93126 15507 ft 304 kts 301°
2026-04-25 07:31 48.97690 8.90815 14788 ft 308 kts 322°
2026-04-25 07:31 48.99614 8.89285 13861 ft 316 kts 334°
2026-04-25 07:31 49.01686 8.88039 12808 ft 322 kts 336°
2026-04-25 07:31 49.03794 8.86826 11771 ft 324 kts 337°
2026-04-25 07:32 49.05904 8.85603 10806 ft 325 kts 337°
2026-04-25 07:32 49.08014 8.84363 9849 ft 324 kts 337°
2026-04-25 07:32 49.10099 8.83128 9091 ft 316 kts 337°
2026-04-25 07:32 49.12072 8.81955 8714 ft 298 kts 337°
2026-04-25 07:33 49.13951 8.80834 8622 ft 284 kts 337°
2026-04-25 07:33 49.15781 8.79739 8621 ft 280 kts 337°
2026-04-25 07:33 49.17587 8.78624 8621 ft 279 kts 335°
2026-04-25 07:33 49.19337 8.77358 8632 ft 279 kts 333°
2026-04-25 07:34 49.21074 8.76043 8622 ft 279 kts 332°
2026-04-25 07:34 49.22812 8.74715 8639 ft 279 kts 332°
2026-04-25 07:34 49.24524 8.73408 8632 ft 279 kts 333°
2026-04-25 07:34 49.26330 8.72226 8640 ft 279 kts 338°
2026-04-25 07:35 49.28122 8.71186 8640 ft 279 kts 338°
2026-04-25 07:35 49.29942 8.70145 8649 ft 279 kts 338°
2026-04-25 07:35 49.31760 8.69105 8645 ft 279 kts 338°
2026-04-25 07:35 49.33583 8.68062 8649 ft 279 kts 338°
2026-04-25 07:36 49.35400 8.67023 8653 ft 279 kts 338°
2026-04-25 07:36 49.37219 8.65982 8648 ft 279 kts 338°
2026-04-25 07:36 49.39035 8.64943 8653 ft 279 kts 338°
2026-04-25 07:36 49.40856 8.63901 8653 ft 279 kts 338°
2026-04-25 07:37 49.42674 8.62858 8657 ft 279 kts 338°
2026-04-25 07:37 49.44496 8.61808 8524 ft 280 kts 338°
2026-04-25 07:37 49.46319 8.60751 8160 ft 279 kts 338°
2026-04-25 07:37 49.48124 8.59699 7816 ft 276 kts 338°
2026-04-25 07:38 49.49918 8.58647 7390 ft 278 kts 338°
2026-04-25 07:38 49.51771 8.57549 6888 ft 284 kts 338°
2026-04-25 07:38 49.53587 8.56464 6404 ft 276 kts 338°
2026-04-25 07:38 49.55333 8.55409 5905 ft 270 kts 338°
2026-04-25 07:39 49.57060 8.54328 5399 ft 266 kts 338°
2026-04-25 07:39 49.58766 8.53257 4900 ft 264 kts 338°
2026-04-25 07:39 49.60463 8.52196 4385 ft 262 kts 337°
2026-04-25 07:39 49.62149 8.51144 3880 ft 261 kts 337°
2026-04-25 07:40 49.63825 8.50100 3531 ft 259 kts 336°
2026-04-25 07:40 49.65495 8.49060 3485 ft 259 kts 336°
2026-04-25 07:40 49.67164 8.48019 3491 ft 259 kts 336°
2026-04-25 07:40 49.68836 8.46977 3455 ft 260 kts 336°
2026-04-25 07:41 49.70513 8.45930 3184 ft 259 kts 336°
2026-04-25 07:41 49.72177 8.44889 2878 ft 257 kts 336°
2026-04-25 07:41 49.73834 8.43855 2566 ft 256 kts 337°
2026-04-25 07:41 49.75477 8.42829 2260 ft 255 kts 337°
2026-04-25 07:42 49.77117 8.41807 1944 ft 253 kts 338°
2026-04-25 07:42 49.78742 8.40793 1651 ft 251 kts 338°
2026-04-25 07:42 49.80366 8.39778 1426 ft 249 kts 338°
2026-04-25 07:42 49.81968 8.38775 1381 ft 248 kts 338°
2026-04-25 07:43 49.83581 8.37763 1386 ft 251 kts 337°
2026-04-25 07:43 49.85179 8.36760 1386 ft 250 kts 338°
2026-04-25 07:43 49.86766 8.35762 1391 ft 235 kts 337°
2026-04-25 07:43 49.88190 8.34869 1396 ft 205 kts 338°
2026-04-25 07:44 49.89418 8.34102 1408 ft 175 kts 338°
2026-04-25 07:44 49.90461 8.33450 1434 ft 151 kts 337°
2026-04-25 07:44 49.91402 8.32862 1412 ft 141 kts 337°
2026-04-25 07:44 49.92304 8.32296 1407 ft 139 kts 336°
2026-04-25 07:45 49.92898 8.31921 1400 ft 139 kts 337°
2026-04-25 07:45 49.93799 8.31354 1390 ft 139 kts 337°
2026-04-25 07:45 49.94935 8.30640 1386 ft 125 kts 337°
2026-04-25 07:45 49.95723 8.30146 1390 ft 122 kts 337°
2026-04-25 07:46 49.96248 8.29814 1396 ft 121 kts 337°
2026-04-25 07:46 49.97022 8.29328 1381 ft 120 kts 337°
2026-04-25 07:46 49.97744 8.28699 1327 ft 120 kts 322°
2026-04-25 07:46 49.98356 8.27826 1319 ft 120 kts 309°
2026-04-25 07:47 49.98762 8.26710 1381 ft 121 kts 285°
2026-04-25 07:47 49.98749 8.25441 1370 ft 120 kts 257°
2026-04-25 07:47 49.98567 8.24137 1450 ft 123 kts 260°
2026-04-25 07:47 49.98300 8.22950 1635 ft 127 kts 249°
2026-04-25 07:48 49.98064 8.21613 1591 ft 116 kts 258°
2026-04-25 07:48 49.97886 8.20486 1264 ft 102 kts 257°
2026-04-25 07:48 49.97712 8.19425 691 ft 73 kts 258°
2026-04-25 07:48 49.97685 8.19387 660 ft 0 kts 286°